STARLINK-2428, 48099

Orbit data source: Space-Track

STARLINK-2428, 48099 is a payload satellite owned by SpaceX/Seattle (US) in LEO that was launched on Wed, 07 Apr 2021 UTC via an FALCON 9 launch vehicle from the Air Force Eastern Test Range (AFETR). Payload-class satellites include a variety of spacecraft equipped with specific instruments for various scientific and technological missions. These include communications satellites like Starlink; space stations such as the ISS; scientific satellites like the Hubble; Earth observation satellites from companies like Planet Labs, Umbra, and HawkEye 360; GPS; miniature CubeSats for education and research; and military/defense satellites.

Loading next visibility...
Identifier
48099, 2021-027H
Orbit
LEO
Country
Flag of USUS
Related business
Manufacturer
SpaceX/Seattle
Mission
Operational Commercial Communications
Bus & Motor
STARLINK, Unknown motor
Mass
260 kg wet, ~248 kg dry
Launch date (UTC)
2021-04-07 (5 years ago)
Launch vehicle
FALCON 9
Launch site
Air Force Eastern Test Range (AFETR)
Object type
Payload
Rocket body
Debris
Shape & HBR
Box + 1 Pan, 10.1 m
Radar Cross Section
13.562 m², Large (>1 m²)

Expand to show TLE details & history
Last TLE update: 2 days ago

TLE from 2 days ago
0 STARLINK-2428
1 48099U 21027H   26171.37386648 -.00000054  00000-0  10029-4 0  9990
2 48099  53.1639  50.0832 0001726 117.4211 242.6966 15.31698590288202
Epoch: 2026-06-20T08:58Z
TLE epoch observation values (Epoch: 2026-06-20T08:58:22.063Z)
Latitude
-0.00005°
Longitude
6.90182°
Altitude
472.187 km
Speed
7.631 km/s
True Right ascension
03h 20m 19s
True Declination
0° 00' 00"
Sunlit
Object was in daylight at epoch
Visualization orbit readout
Latitude
Unknown
Longitude
Unknown
Altitude
Unknown
Speed
Unknown
Apparent Right ascension
Unknown
Apparent Declination
Unknown
Sunlit
N/A
Visualization observer readout
Local Sidereal Time
21:26:36
Azimuth
Unknown
Elevation
Unknown
Doppler factor
Unknown
Orbital elements
Apogee altitude
472.182 km
Perigee altitude
469.818 km
Semi-major axis
6,849.137 km
Eccentricity
0.00017
Inclination
53.1639°
RAAN
50.0832°
Arg. of periapsis
117.4211°
True anomaly
242.67903°
Mean anomaly
242.6966°
Eccentric anomaly
242.68781°
Mean motion
3.82904 °/min
Orbital period
94.02 mins
BSTAR
0.000010029
Loading maneuver chart data...
Computing Atmospheric mass density...

Documentation

Showing up to 5 results
|